GFSGL_500_spd_000.txt.gz
Wind_Speed
57 54 56 57 58 58 59 61 60 54 51 53 56 56 58 57 56 57 58 57 61 65 66 68 70 72 72 71 69 70 67 67 64 61 66 69 71 71 71 72 74 77 79
62 57 56 57 57 58 60 58 56 55 55 55 54 54 56 51 57 58 62 62 64 68 69 70 72 73 66 63 60 62 64 68 71 66 65 66 69 72 73 74 73 77 82
64 64 63 63 58 55 56 58 54 52 49 51 52 54 56 62 64 64 65 67 69 66 68 68 70 70 68 65 63 67 70 70 70 68 60 65 68 70 72 75 74 77 81
65 64 65 63 53 51 52 53 50 54 57 56 57 61 63 65 67 66 63 62 64 64 67 68 71 71 72 73 71 72 73 72 70 70 66 64 68 74 76 77 73 77 84
60 64 65 58 47 48 51 52 55 57 57 60 61 61 62 62 62 64 64 68 64 61 61 63 66 70 73 72 70 72 72 74 75 76 73 70 70 73 75 75 80 82 82
60 60 62 66 56 53 56 57 54 57 59 60 58 59 62 64 67 66 61 60 58 60 61 66 69 72 70 70 71 73 73 73 75 76 72 70 67 72 77 80 78 83 86
66 66 65 63 64 66 63 59 57 58 62 61 56 59 60 60 56 52 54 56 59 61 60 60 63 64 65 65 65 68 70 71 72 71 68 70 70 78 79 79 83 87 87
78 78 74 73 68 68 60 58 60 63 64 61 56 55 59 55 50 50 50 52 49 52 51 57 63 66 68 67 71 68 63 64 65 67 69 73 75 78 82 84 86 90 89
81 83 86 79 73 71 66 57 63 68 66 69 57 56 59 60 52 55 53 51 48 57 60 60 62 65 68 72 75 69 67 66 69 72 74 79 79 81 85 88 89 95 96
79 85 85 75 73 66 60 61 64 65 68 66 66 63 60 63 54 52 53 54 67 65 61 65 68 69 73 73 74 73 72 70 69 73 76 76 81 81 81 88 93 97 101
85 86 75 68 67 66 63 62 64 64 63 62 63 64 65 69 67 67 69 73 70 66 71 70 73 76 77 75 77 75 73 73 71 73 75 78 79 78 82 86 93 102 101
89 86 80 74 78 77 72 69 64 64 62 60 61 66 70 71 74 76 78 79 75 74 76 77 72 77 79 77 74 71 72 73 73 73 73 74 75 78 83 88 95 96 86
82 74 81 80 77 73 74 69 67 68 68 63 66 70 74 76 80 84 82 80 83 83 85 75 75 77 75 76 72 69 76 77 75 74 74 74 77 81 85 90 93 81 67
73 76 76 74 72 74 71 70 71 71 71 70 69 74 78 77 80 90 81 80 78 70 72 77 86 89 72 85 78 72 75 76 75 73 74 77 79 82 89 89 80 66 60
79 76 80 79 79 76 76 72 71 68 69 71 81 76 77 72 72 73 70 71 74 77 76 77 75 71 70 72 70 66 67 69 70 74 78 79 82 87 88 77 65 57 55
83 83 87 90 85 84 81 79 72 65 71 75 73 74 80 84 80 78 74 74 75 74 78 80 74 72 71 66 60 53 56 62 68 74 77 80 83 87 80 65 58 53 51
78 79 83 85 84 83 83 82 87 80 82 84 83 85 81 70 69 74 81 86 70 72 73 63 66 66 65 54 47 49 56 62 68 73 74 79 83 78 68 61 54 50 49
83 88 92 94 93 84 87 94 86 79 77 84 87 87 84 85 90 85 76 80 73 71 64 59 60 61 51 41 43 50 56 61 65 69 72 77 75 69 62 59 54 50 47
118 117 115 118 109 108 106 107 114 99 96 95 90 98 102 96 92 86 73 67 69 62 54 55 57 55 41 39 46 50 54 59 64 66 70 72 69 62 59 56 53 50 47
113 110 114 111 109 108 110 113 125 117 117 114 110 102 102 100 89 67 66 67 64 52 53 56 52 47 36 41 47 50 52 58 61 65 69 68 64 58 57 53 51 47 44
78 79 75 76 76 74 74 75 79 84 87 85 73 70 63 68 65 63 56 49 49 52 55 54 50 39 37 42 47 49 52 58 60 64 67 66 62 53 53 50 46 46 43
50 53 52 54 55 56 53 53 50 42 43 47 48 45 53 53 47 50 51 48 50 54 54 51 40 35 39 44 49 51 53 59 62 65 66 64 58 48 48 45 40 41 40
43 43 44 47 52 51 47 41 37 42 43 47 50 45 55 50 52 45 46 48 49 51 50 43 37 38 42 47 51 53 54 59 63 67 66 60 55 46 43 40 36 37 38
34 35 36 39 40 41 39 37 38 36 39 42 42 44 44 44 45 45 44 45 49 50 46 40 39 42 45 49 53 56 58 60 64 68 68 59 52 44 40 37 33 32 37
24 24 23 26 28 29 40 39 41 38 38 42 47 47 46 42 40 39 40 46 49 47 44 42 43 45 49 51 55 57 59 62 66 72 69 57 51 44 38 36 32 28 32
21 24 25 25 30 36 41 39 31 35 38 38 35 33 32 32 34 38 42 47 47 44 43 44 46 49 51 54 58 60 61 63 68 73 65 53 50 42 36 34 30 25 27

GFSGL_500_spd_003.txt.gz
Wind_Speed
52 49 53 58 60 63 60 59 58 59 59 60 61 61 61 60 59 58 58 59 60 59 60 60 63 63 66 67 67 71 75 75 77 79 80 80 79 77 78 79 81 81 79
54 54 54 55 60 62 57 58 58 60 61 61 60 62 62 61 58 59 59 58 58 58 60 63 63 65 68 70 75 77 77 78 77 72 72 71 73 72 77 79 82 82 83
60 59 59 59 61 63 62 63 63 65 65 66 65 64 64 62 56 55 55 55 57 61 65 65 69 69 73 74 73 71 72 69 71 70 67 67 71 74 74 75 75 78 78
57 60 61 61 63 66 67 68 66 65 64 65 65 64 62 58 59 61 61 62 64 67 70 69 70 69 70 69 68 66 65 65 66 65 65 65 65 68 73 73 70 75 80
64 65 62 66 65 67 68 63 63 62 62 60 63 69 66 61 61 59 62 65 65 66 65 64 64 65 60 58 60 62 59 61 63 66 67 66 69 70 72 69 70 70 70
82 66 61 67 70 70 62 68 62 59 55 59 63 61 58 59 63 61 61 65 64 65 61 59 60 61 58 57 49 52 55 56 59 58 62 66 72 75 75 73 74 71 71
81 77 77 74 80 75 73 70 68 62 64 67 67 61 60 61 60 62 62 64 66 67 64 60 56 54 57 54 56 54 58 62 64 69 70 69 70 75 74 76 77 79 81
86 83 83 85 80 76 75 74 75 74 70 67 64 61 61 61 61 64 64 68 68 66 65 58 57 61 61 54 58 62 65 68 65 67 72 75 80 84 81 81 81 81 78
92 90 87 87 85 84 82 75 80 81 75 72 68 62 63 60 61 62 64 64 66 68 57 63 63 62 62 64 67 69 69 71 75 74 76 82 86 92 91 87 80 76 75
87 89 88 82 83 78 74 69 77 69 69 74 69 63 55 58 58 58 56 59 58 63 65 67 61 66 70 72 74 71 75 78 75 77 80 85 87 89 85 82 83 84 82
74 76 60 57 59 61 64 68 71 74 75 73 68 63 58 60 58 60 55 58 61 66 71 66 71 74 75 77 79 79 78 72 75 81 86 90 84 76 79 80 80 82 84
77 79 66 68 65 66 68 70 74 72 66 67 67 63 60 57 63 59 56 63 64 68 69 71 76 75 77 79 76 73 74 79 86 87 83 79 79 76 76 79 78 80 83
81 79 71 66 70 70 69 72 61 67 67 68 63 63 62 63 65 58 62 65 70 73 72 76 78 82 77 78 81 74 74 82 83 84 79 75 76 77 78 77 77 79 81
82 76 70 63 69 75 78 73 73 72 68 68 67 70 70 65 57 64 66 68 71 72 77 78 76 83 79 80 85 86 85 83 80 82 78 76 74 73 72 76 78 80 82
84 85 78 74 69 76 79 85 86 76 73 74 64 68 58 63 72 70 67 67 66 60 70 72 78 81 84 83 81 85 81 78 78 71 74 72 70 67 69 75 79 80 82
85 80 75 80 80 79 85 87 85 81 77 75 77 75 73 73 74 70 71 74 73 76 78 75 81 84 86 83 73 71 77 77 69 70 69 69 68 67 70 75 77 79 79
114 101 97 87 84 93 94 90 90 88 85 85 82 81 75 78 76 78 80 78 74 78 74 79 78 80 79 71 73 73 72 65 65 65 65 64 64 68 72 72 74 77 76
112 115 97 90 87 93 89 91 91 86 90 90 83 82 78 70 72 80 84 79 72 75 90 90 89 87 69 67 74 70 60 57 60 61 60 61 63 66 69 72 75 78 77
95 98 100 93 95 98 100 100 102 95 85 73 81 78 73 81 87 88 88 91 93 92 91 93 88 73 70 71 70 55 54 55 57 58 60 61 62 65 68 73 77 79 75
75 80 85 89 91 92 96 100 104 106 98 91 95 91 89 93 87 82 85 91 92 84 69 61 65 69 70 68 58 53 53 54 54 58 59 59 62 64 67 74 79 80 72
60 63 66 62 60 61 67 67 87 90 89 87 97 88 78 72 67 66 66 63 69 68 65 65 65 65 57 51 51 51 50 53 56 57 57 58 62 63 68 75 79 79 68
48 49 47 45 42 43 45 49 57 59 54 54 51 53 54 52 53 51 51 53 55 53 53 55 50 45 46 48 48 48 49 54 55 54 56 59 62 65 69 75 78 76 63
34 32 31 33 34 37 37 37 37 38 36 34 39 42 39 38 39 44 48 47 51 58 55 46 42 42 44 44 47 48 52 54 53 54 57 61 64 67 70 75 77 69 58
24 27 29 29 31 33 34 35 36 36 36 35 33 31 34 37 40 47 53 51 46 43 48 48 43 40 41 45 49 51 53 52 54 57 60 63 66 69 72 75 75 59 55
22 24 26 26 29 32 33 33 33 33 33 30 32 33 37 39 42 46 43 45 47 43 40 36 37 41 45 48 51 52 54 55 57 59 63 67 67 71 73 74 69 51 51
10 13 15 17 20 22 22 22 20 23 26 31 37 37 37 36 39 44 45 42 36 33 32 36 41 45 47 49 51 52 55 58 59 63 67 68 70 73 74 68 59 47 48

GFSGL_500_spd_006.txt.gz
Wind_Speed
58 62 63 62 58 55 56 59 63 65 66 68 66 64 60 55 53 52 54 57 59 60 60 59 60 61 61 62 61 62 62 62 62 63 63 66 65 65 63 62 63 65 66
61 62 68 67 57 63 66 65 67 68 67 67 67 64 60 59 59 58 58 58 60 62 63 60 63 65 66 66 66 66 68 69 69 67 67 67 71 73 72 70 69 74 72
65 70 67 66 66 68 70 72 71 70 67 67 70 71 66 64 62 62 62 62 62 65 65 63 67 65 63 64 68 69 70 70 69 70 69 71 65 70 72 74 69 67 67
62 64 61 63 73 74 78 76 74 76 72 71 71 73 72 69 69 68 68 64 62 58 61 65 66 64 65 68 69 72 73 73 71 68 68 65 66 68 67 62 60 61 60
76 79 78 71 70 71 68 71 65 65 74 78 77 73 73 73 69 69 68 65 65 63 63 67 67 67 66 67 67 69 69 68 63 63 61 62 63 64 59 58 60 59 63
94 94 90 82 76 76 77 79 80 77 73 76 82 76 66 67 67 69 72 70 68 70 67 64 63 65 62 64 66 68 68 62 59 58 61 60 61 60 63 63 65 60 70
87 87 84 80 79 80 80 81 83 84 81 76 75 73 74 72 70 73 73 75 72 71 68 68 66 62 65 65 67 68 66 59 59 62 63 64 66 66 71 75 77 73 73
85 79 80 79 79 87 87 87 87 85 83 83 78 76 73 77 73 78 76 73 72 71 69 71 66 68 73 73 75 68 56 59 64 66 69 72 70 74 77 80 80 75 80
84 90 82 85 83 84 88 90 95 96 92 90 89 82 75 77 81 77 70 71 70 68 69 67 69 66 69 62 69 68 63 64 65 63 69 72 75 76 80 78 79 81 81
96 94 87 88 89 89 91 93 83 87 96 93 93 81 77 77 74 77 81 57 64 66 62 54 59 54 57 57 58 62 65 70 68 66 68 69 70 77 81 83 89 89 88
94 94 92 95 95 92 89 76 73 71 68 77 80 83 83 85 80 68 65 66 64 63 54 61 59 65 63 60 64 67 71 74 69 70 70 71 76 79 82 85 91 96 96
95 90 96 88 84 87 85 74 73 70 68 65 66 65 65 62 64 64 65 60 62 62 59 63 69 67 71 65 66 66 74 76 70 74 78 77 77 82 87 87 88 92 91
95 89 89 85 76 70 73 68 66 71 66 70 74 75 66 61 58 57 64 67 66 59 58 60 65 66 74 70 71 70 69 74 76 77 81 80 80 83 79 82 85 88 88
100 93 92 85 73 69 66 71 69 72 72 75 74 67 72 64 61 59 58 58 68 54 59 61 70 68 67 68 68 69 73 77 78 79 78 78 82 75 74 81 82 83 78
100 107 106 105 95 88 85 79 77 80 80 70 76 69 69 71 71 78 73 71 61 59 61 68 70 62 66 76 77 67 73 76 75 71 71 76 79 78 75 77 78 73 70
95 96 99 107 114 114 103 100 90 81 80 79 68 66 69 72 78 76 66 77 70 71 67 64 66 73 68 75 74 66 70 70 71 77 80 75 73 71 73 73 71 66 67
85 88 91 95 100 100 109 108 93 87 86 89 79 71 67 76 84 77 81 82 77 75 79 69 76 74 75 80 84 76 71 75 81 79 70 71 69 68 68 66 61 63 64
71 74 77 80 85 84 85 92 91 91 91 96 94 72 69 72 84 87 75 73 79 81 74 77 77 71 67 67 72 75 78 82 78 72 74 70 63 58 59 58 59 63 66
62 62 64 65 69 74 73 76 86 97 97 98 89 81 76 79 82 80 77 71 74 68 69 69 71 71 69 79 81 83 80 79 76 70 69 62 58 57 55 57 60 65 68
49 51 54 56 58 60 61 62 69 79 92 106 105 98 86 85 81 92 87 82 77 75 81 85 72 68 71 74 78 80 76 72 67 66 61 55 55 55 55 57 62 65 68
38 39 42 43 45 47 48 47 49 50 55 60 72 80 79 86 86 91 96 96 92 90 89 84 83 68 68 69 66 63 63 60 57 56 51 52 54 55 56 60 63 66 68
24 24 25 28 31 34 35 37 38 39 40 46 50 54 60 68 74 77 70 66 63 67 66 60 61 59 55 54 49 51 55 58 53 50 50 50 52 54 58 62 64 67 69
13 15 14 16 18 17 20 27 32 32 32 35 38 41 42 42 44 47 49 48 47 45 45 46 47 46 48 50 49 50 52 49 47 44 45 49 52 56 61 63 66 69 71
10 8 11 14 16 17 17 15 15 18 24 28 26 24 24 23 27 33 35 36 40 44 44 44 43 43 45 44 45 47 46 44 43 44 47 50 55 59 62 65 68 70 74
14 13 15 17 19 20 21 20 23 25 24 28 32 32 30 31 33 33 29 34 37 39 37 38 43 43 42 42 43 44 39 40 43 46 50 53 57 61 64 67 69 72 77
10 9 8 8 8 10 11 14 18 23 23 26 29 30 29 29 29 30 30 32 33 34 36 37 38 39 39 37 36 35 37 41 46 50 53 56 59 62 66 68 72 76 80

GFSGL_500_spd_009.txt.gz
Wind_Speed
57 61 63 63 65 57 61 66 68 62 60 60 59 58 59 60 62 64 66 62 61 59 55 56 57 56 54 53 54 54 55 55 56 57 57 58 59 60 58 58 58 60 64
62 62 65 58 57 58 63 68 67 61 60 61 62 61 60 67 72 73 71 65 63 61 58 56 56 59 59 58 57 60 60 59 59 60 55 57 57 56 56 56 59 60 60
70 70 68 66 61 60 62 65 69 68 69 69 69 69 70 69 72 75 72 71 66 64 63 60 59 59 60 63 63 63 62 64 59 56 56 56 58 58 57 56 54 56 52
78 75 74 71 69 63 61 73 71 66 70 76 74 71 70 73 74 77 76 72 69 69 68 66 65 64 64 64 66 66 67 65 67 64 63 61 63 60 57 56 55 52 53
84 81 82 76 75 74 70 70 72 74 76 74 79 77 76 78 79 79 79 75 74 73 70 70 69 67 65 66 66 67 68 67 69 69 66 61 59 58 60 58 56 55 58
83 87 90 88 87 88 81 84 83 80 78 79 79 81 80 77 79 77 76 72 75 76 73 69 67 68 71 71 69 70 70 68 68 64 62 59 59 59 58 56 55 56 61
85 87 92 95 98 103 100 99 93 76 76 79 80 83 83 85 78 78 77 76 76 75 73 71 71 71 74 74 77 74 70 68 68 66 63 66 64 60 62 57 56 58 64
90 88 90 91 93 91 94 80 82 78 75 80 83 83 86 84 79 85 86 81 82 80 75 71 74 75 79 81 82 78 69 70 66 66 69 70 65 69 63 59 58 59 63
103 97 94 97 93 87 90 85 80 77 79 78 84 86 89 80 81 91 83 88 86 83 85 77 72 77 87 82 74 70 69 66 63 66 66 60 63 63 64 63 60 64 66
102 103 102 99 103 97 87 86 83 83 84 82 81 85 84 81 77 79 83 87 91 85 80 77 79 72 82 73 63 69 68 63 63 64 55 57 62 63 65 63 68 67 66
96 98 101 103 111 111 107 103 93 90 91 90 86 89 87 84 83 87 84 85 89 89 97 75 73 68 75 65 63 60 55 55 58 59 64 65 64 65 67 68 70 72 73
90 92 96 99 105 109 108 103 102 103 99 105 103 100 90 82 83 83 78 72 72 76 74 69 67 80 60 66 66 59 59 61 62 65 65 68 67 65 66 70 72 75 80
93 93 94 94 96 99 103 101 102 102 103 105 99 88 85 84 83 78 69 64 60 56 64 63 61 65 63 64 64 60 60 58 68 67 66 70 71 67 68 73 75 76 80
90 91 93 95 95 96 96 96 96 96 97 89 87 83 82 77 80 75 65 70 67 59 53 55 63 63 65 61 59 59 64 62 66 69 68 70 68 68 74 80 81 82 81
82 81 83 85 89 92 94 93 93 90 89 88 84 77 68 68 70 71 71 63 71 64 63 59 64 64 59 63 71 66 63 62 66 67 73 71 73 78 79 80 84 84 80
71 71 73 75 77 80 84 86 87 88 86 84 88 77 72 68 71 65 67 68 64 70 65 67 62 68 67 68 76 73 63 61 64 70 65 70 74 78 80 80 79 80 82
62 61 62 65 67 70 74 76 78 78 81 82 86 89 81 77 72 73 69 74 73 77 72 73 70 70 74 78 85 69 61 62 68 72 72 72 76 82 83 76 78 79 79
54 53 52 53 55 59 62 65 67 69 69 73 79 87 95 93 95 88 80 77 76 71 66 71 71 74 70 69 65 63 62 64 70 78 75 74 72 70 73 74 73 76 78
49 50 50 50 51 51 52 54 55 57 58 61 66 73 81 86 94 94 84 78 78 76 70 65 62 56 57 59 57 53 54 60 62 66 69 72 75 78 77 74 75 74 74
38 41 43 44 44 42 42 43 45 47 46 49 53 60 67 74 77 79 80 81 82 77 71 63 63 67 68 66 67 68 65 65 68 75 78 75 73 75 76 77 76 71 66
31 34 33 29 27 27 28 30 33 34 34 35 40 48 53 59 68 73 72 78 82 84 78 69 71 79 78 73 74 73 70 69 69 66 68 67 67 68 70 66 63 62 60
27 20 15 13 13 13 13 15 18 21 24 27 32 37 43 47 52 57 60 61 61 62 71 75 72 74 70 74 76 71 69 65 64 61 60 58 57 56 57 58 57 57 58
25 25 22 17 14 11 11 10 9 11 16 20 27 31 34 34 36 40 46 54 58 65 62 67 72 70 65 64 61 60 58 52 50 51 51 52 52 54 55 55 55 55 57
23 21 20 18 16 15 14 13 11 7 4 9 14 17 16 18 23 28 33 39 47 53 56 55 52 52 50 48 46 48 51 50 50 47 47 50 53 52 52 51 51 53 55
24 19 18 16 14 12 11 10 9 5 6 4 4 10 15 18 18 19 21 23 27 30 33 35 36 36 38 40 43 45 45 46 45 44 44 47 48 47 47 47 50 53 57
41 39 30 18 13 11 9 8 7 6 8 9 9 11 14 16 19 20 18 20 24 26 25 27 29 32 36 40 43 45 46 46 45 44 44 44 41 42 45 49 53 57 61

GFSGL_500_spd_015.txt.gz
Wind_Speed
68 68 67 68 69 69 74 73 74 75 76 74 71 72 73 75 77 78 78 73 72 70 70 73 76 74 73 69 69 69 69 63 59 57 58 57 56 56 59 60 58 56 55
74 73 70 70 72 74 72 71 73 77 77 76 75 74 74 77 79 78 78 80 78 73 68 70 74 73 70 67 71 70 68 63 58 58 59 62 63 63 61 61 59 57 55
80 80 77 75 75 80 79 79 73 73 75 76 81 79 78 79 80 82 81 80 75 79 72 69 72 74 72 72 71 70 70 67 66 59 60 59 62 61 62 62 60 58 57
80 86 88 87 85 85 84 83 83 78 77 79 82 82 81 83 84 86 86 86 85 78 76 72 73 74 73 72 72 75 74 70 65 62 60 57 60 60 59 58 55 55 54
88 89 91 90 89 89 92 90 88 85 86 86 85 88 88 88 90 89 91 91 88 85 82 79 80 81 82 81 79 79 76 73 69 65 64 60 59 62 58 58 57 55 53
93 93 94 93 92 92 92 93 93 94 93 88 90 91 95 91 95 89 88 91 91 90 84 85 86 88 88 84 79 79 78 77 73 70 68 67 61 58 59 58 58 55 54
99 100 100 99 99 98 98 98 97 97 96 94 94 95 97 92 93 94 95 93 92 91 92 89 88 85 86 84 81 79 79 80 75 74 72 68 68 60 63 60 59 59 56
102 103 103 104 105 106 107 107 107 107 105 103 102 99 98 101 98 99 100 101 100 96 93 97 94 89 87 87 82 85 81 78 75 80 74 77 68 68 68 62 59 60 60
95 95 96 97 99 101 104 107 109 112 112 110 108 106 104 103 103 103 106 105 103 105 104 101 97 99 91 93 95 91 82 79 74 76 75 73 75 76 74 68 63 63 63
87 89 90 91 93 95 97 98 100 103 106 107 108 107 108 107 103 105 109 111 109 103 101 99 98 93 90 102 90 91 80 70 72 73 75 76 75 79 74 68 69 68 66
83 85 87 89 91 92 92 93 94 95 96 98 101 102 103 104 104 102 103 113 113 111 102 96 91 90 86 86 86 79 73 80 77 77 75 79 82 84 78 70 71 71 69
83 84 87 89 91 92 94 93 95 96 97 96 97 96 94 94 96 96 97 100 109 115 113 100 94 95 89 90 94 82 83 80 85 80 78 83 86 72 72 73 71 69 71
80 80 80 81 82 84 85 86 88 89 92 91 93 93 93 94 94 93 91 91 94 103 110 107 98 97 91 92 94 89 89 87 83 85 78 73 67 63 63 69 74 73 74
71 67 64 64 64 66 66 66 65 66 70 74 76 78 82 87 89 90 94 91 88 91 94 96 95 96 100 93 87 92 88 85 82 80 74 70 67 65 66 71 74 80 81
57 49 49 56 60 62 62 62 63 63 67 69 65 63 64 68 72 80 86 88 87 88 89 89 92 93 93 97 99 88 86 89 87 81 78 76 71 70 71 73 76 77 76
43 45 53 55 51 50 52 54 58 61 60 58 65 66 59 55 57 64 69 75 80 82 87 87 84 85 87 92 99 102 96 85 80 78 76 73 74 73 74 72 74 78 72
48 52 50 50 49 51 53 56 54 54 53 52 51 51 50 47 50 52 54 59 65 72 79 81 80 77 78 81 86 89 89 94 94 82 76 78 79 77 73 72 73 71 74
52 49 44 46 47 48 52 45 41 41 46 50 51 46 44 43 43 43 44 48 54 62 68 71 72 71 73 76 77 79 79 79 82 80 79 84 81 78 75 77 84 73 68
42 43 43 42 43 41 42 34 34 32 31 31 35 38 37 37 38 40 41 42 44 51 53 60 66 68 71 74 75 71 70 74 78 80 83 83 82 84 80 80 81 78 77
41 37 33 33 37 34 32 28 31 35 32 29 27 26 26 27 28 30 34 38 41 46 50 56 60 66 70 73 72 70 68 63 65 67 73 77 74 80 78 78 80 78 81
34 35 36 33 31 31 29 30 31 31 33 31 26 23 21 19 21 24 27 33 36 41 47 50 54 62 65 72 71 71 70 64 56 51 53 61 63 64 64 67 71 70 70
32 35 36 36 37 29 27 28 28 25 27 31 25 21 18 18 18 18 22 27 30 34 40 44 48 54 61 65 71 72 64 60 61 58 54 54 53 50 53 56 59 57 58
31 34 36 36 36 35 34 25 25 23 23 26 27 20 16 13 13 14 17 20 23 27 30 33 37 41 48 57 67 71 64 59 60 58 57 56 56 56 57 58 59 59 59
30 34 36 37 36 36 35 35 26 22 22 22 22 23 19 13 9 7 9 11 14 16 19 22 25 30 39 46 54 60 57 52 50 51 53 54 55 57 56 57 58 60 61
30 33 36 38 38 38 37 36 33 27 19 18 17 14 13 13 11 9 8 5 3 9 11 19 20 16 20 25 36 46 49 44 45 47 48 48 50 51 52 53 55 55 56
32 34 36 37 37 37 37 38 37 32 27 18 14 13 9 6 5 3 3 3 4 6 8 9 21 23 21 22 30 38 36 37 38 39 39 40 41 44 46 48 49 50 52

GFSGL_500_spd_021.txt.gz
Wind_Speed
77 72 75 73 74 79 81 80 76 78 81 86 89 91 87 87 84 80 83 83 83 85 87 90 89 88 87 85 84 87 86 86 86 80 74 69 65 63 64 65 67 68 68
74 77 77 76 83 88 84 82 77 77 80 82 87 91 90 90 80 73 74 79 84 83 81 82 84 84 87 88 87 85 86 85 85 84 79 75 70 67 67 69 70 69 69
80 82 80 79 84 89 84 79 82 82 85 91 91 90 87 84 82 79 76 75 77 80 81 82 82 84 85 87 89 89 88 86 86 86 82 78 75 73 71 70 72 73 73
93 93 94 97 96 99 96 93 100 94 99 94 100 101 97 94 89 91 88 89 88 84 86 85 85 88 84 85 87 90 91 90 89 87 87 83 78 78 78 75 77 78 76
98 99 101 103 105 106 109 110 110 105 105 105 103 109 107 109 106 106 103 100 98 96 95 93 92 91 95 91 86 83 83 81 86 88 88 85 80 77 76 77 75 77 79
89 89 89 90 92 96 102 107 108 108 109 109 108 109 111 110 107 106 107 110 105 101 96 95 97 96 93 95 98 93 86 78 72 78 79 80 81 79 76 77 80 78 80
76 77 78 81 82 83 83 85 86 89 93 96 100 105 109 109 103 100 102 107 109 109 107 102 98 97 97 99 101 100 103 89 83 80 77 74 75 73 75 79 81 82 80
67 68 70 72 74 76 77 78 78 80 81 84 86 88 92 94 97 102 104 106 108 110 112 111 108 103 102 103 103 99 94 96 97 88 86 81 75 75 74 75 82 83 86
67 69 71 73 75 77 78 79 79 79 79 80 80 80 82 81 84 87 92 98 102 103 103 104 109 111 107 107 108 107 102 93 89 90 88 88 84 76 74 78 80 83 88
68 70 72 74 76 76 76 77 79 80 80 79 79 80 81 80 83 85 89 93 93 94 94 95 96 101 105 108 111 111 111 102 96 93 92 90 87 89 83 79 72 83 86
69 71 74 76 75 75 73 72 72 72 71 68 67 65 64 63 63 68 74 81 87 91 94 93 91 92 95 101 106 110 110 107 108 103 98 96 95 92 94 92 87 75 83
70 71 72 71 69 69 67 64 63 61 54 47 44 47 53 59 63 66 69 74 78 79 80 84 90 91 92 93 97 100 103 107 110 111 106 100 97 98 93 97 98 91 78
67 66 67 65 62 56 54 53 54 52 46 48 49 51 54 58 64 70 76 78 78 78 77 77 77 81 86 90 93 93 95 99 103 107 107 104 101 98 98 99 95 99 98
62 65 62 56 49 46 45 47 51 50 45 41 40 42 46 52 51 53 60 65 69 74 72 72 74 71 69 74 83 88 93 94 95 96 100 100 101 103 103 100 100 94 96
60 61 54 45 42 40 42 42 42 42 41 44 46 46 46 48 50 57 57 54 55 58 63 64 63 66 63 60 62 73 83 90 93 91 90 93 97 100 102 100 98 99 97
57 53 44 40 39 38 37 37 42 42 43 44 45 47 47 48 50 59 54 48 48 50 49 51 53 56 61 60 57 55 62 75 86 88 88 87 89 92 95 98 97 96 96
52 42 39 37 36 34 35 37 36 39 44 43 43 45 47 47 51 59 52 44 44 42 41 42 43 42 46 47 51 52 53 61 72 82 85 87 87 86 87 89 90 90 92
45 38 36 35 33 33 32 35 36 37 38 43 46 43 43 46 49 55 49 41 37 37 34 35 37 36 37 39 44 47 50 55 62 70 77 82 84 85 83 80 82 82 86
39 33 34 33 33 32 32 33 35 37 39 41 42 42 41 43 46 51 45 38 32 30 27 27 28 30 32 33 38 40 43 48 54 61 66 72 77 80 81 79 78 80 82
33 31 32 31 32 31 32 35 36 36 38 38 40 41 39 39 42 45 43 36 30 27 24 22 22 25 27 29 32 35 38 42 46 51 57 63 68 72 76 77 76 76 76
28 28 29 30 30 31 33 36 38 39 39 39 39 40 41 37 36 38 40 35 28 25 21 18 18 19 23 27 30 32 34 35 38 42 47 52 57 61 67 71 72 74 69
24 25 27 27 30 31 33 37 41 42 41 41 41 40 39 37 32 32 33 33 30 23 20 18 16 15 18 22 26 28 29 29 30 34 38 43 48 52 57 62 65 66 63
21 23 24 27 29 30 34 38 41 42 43 44 43 41 37 35 30 27 27 27 27 27 26 19 17 16 15 15 17 19 21 22 24 26 30 34 39 42 47 51 54 58 61
19 20 22 26 27 31 34 38 40 42 43 45 44 40 33 31 27 24 22 22 22 23 23 20 15 12 10 8 9 10 12 16 20 22 25 26 29 33 36 42 46 47 48
17 18 21 24 28 31 35 37 39 41 41 40 38 36 32 29 27 22 20 20 20 20 21 19 18 15 7 10 12 12 12 15 16 19 21 25 26 27 32 39 41 38 42
15 18 21 24 27 30 34 35 38 38 37 34 33 30 26 27 28 24 20 19 18 19 20 20 18 14 10 12 11 10 8 11 15 19 18 23 27 30 33 34 32 31 34

GFSGL_500_spd_024.txt.gz
Wind_Speed
78 80 81 81 82 82 84 83 84 84 83 82 84 85 85 86 91 91 88 85 85 87 90 91 88 90 92 95 94 94 91 88 89 85 83 78 77 73 74 75 74 73 73
82 83 84 85 86 88 88 87 87 84 82 83 89 89 86 87 91 92 91 88 85 83 83 84 87 83 87 90 94 94 96 95 94 93 88 84 82 79 77 77 77 77 75
85 85 86 87 88 89 89 89 91 92 90 92 96 95 93 91 92 97 97 93 89 89 87 87 87 91 89 84 86 89 89 88 93 93 94 90 87 83 82 78 76 77 77
89 89 90 91 92 93 94 94 94 95 97 99 101 102 104 101 103 104 105 100 100 94 93 93 94 93 94 89 84 82 81 81 82 85 86 89 84 81 83 82 78 76 76
87 87 88 88 88 89 90 91 91 92 94 96 99 103 106 110 110 114 115 112 108 101 100 97 104 104 101 97 93 91 89 85 84 82 80 82 85 83 78 83 84 80 79
82 80 78 76 74 74 74 75 76 78 81 83 86 89 93 94 98 104 114 121 119 119 118 116 114 111 112 109 108 104 102 96 92 89 88 86 80 83 83 80 84 83 84
70 67 65 65 65 65 66 68 69 70 70 71 73 74 75 78 83 88 94 102 111 117 118 121 121 117 117 115 109 108 110 107 104 98 94 92 91 87 85 86 83 87 81
64 63 63 64 65 68 70 71 71 72 73 74 74 75 75 76 79 81 84 85 87 90 94 99 105 109 111 115 117 112 108 108 106 103 101 94 96 95 95 88 90 81 76
61 62 64 67 70 72 72 73 73 73 73 73 73 73 73 73 75 77 78 79 79 79 80 82 85 88 91 99 107 110 110 107 105 106 102 98 98 99 98 98 92 99 86
62 64 67 70 71 72 73 73 71 71 67 67 67 66 66 65 65 66 67 69 69 71 74 77 81 84 85 88 94 97 103 105 106 106 105 103 103 101 101 100 96 96 99
64 66 67 68 70 70 70 68 65 65 65 61 57 51 51 49 45 45 47 50 53 56 61 65 70 74 78 85 91 93 94 95 98 106 108 107 107 107 105 101 97 96 92
63 65 67 68 69 69 67 65 63 57 51 45 44 44 45 44 45 44 46 49 53 57 60 67 75 82 84 84 86 87 90 94 95 98 101 106 108 109 106 103 100 96 91
62 63 65 67 66 66 65 60 51 44 40 42 41 40 42 44 44 46 49 51 55 59 61 64 67 69 72 79 86 88 88 89 91 96 95 94 95 101 105 105 103 101 97
61 63 64 63 62 63 60 51 43 41 41 40 39 37 37 38 42 46 49 51 55 57 60 64 63 62 63 61 64 74 80 83 85 83 88 90 91 91 95 100 100 101 101
61 61 61 59 59 59 51 43 40 42 41 38 36 35 36 38 39 41 44 49 51 55 60 60 53 51 53 57 60 60 69 72 73 74 74 77 86 91 90 89 92 96 100
58 57 57 56 55 51 41 36 42 40 39 40 39 40 40 41 43 44 45 45 48 53 56 54 50 50 49 48 47 45 50 57 62 66 66 66 72 82 86 88 88 91 93
54 55 55 53 50 43 36 35 33 36 40 38 38 41 42 42 43 45 45 45 48 51 53 50 49 49 44 40 38 38 41 45 51 56 59 57 60 67 73 82 88 89 89
51 52 53 48 44 36 33 34 33 32 32 35 40 40 42 43 45 46 45 45 45 49 49 46 44 42 37 33 31 32 34 38 43 52 54 53 55 59 64 70 79 85 87
52 52 50 44 40 32 31 32 32 33 33 34 37 42 43 44 45 46 46 44 42 43 46 43 40 37 31 28 26 26 28 30 32 36 42 48 52 55 58 63 69 75 81
52 52 51 41 34 29 30 30 31 33 34 36 39 40 41 42 44 47 47 44 39 38 40 41 37 32 29 24 22 21 23 26 29 34 40 44 47 49 51 55 60 64 71
55 55 47 36 29 26 28 29 30 32 34 38 40 41 43 43 43 43 42 39 33 31 33 35 36 30 25 23 21 21 22 25 28 32 35 38 41 42 44 47 51 55 61
50 49 38 31 25 25 25 27 29 31 34 38 41 43 43 42 41 41 39 34 28 25 26 29 32 29 24 21 20 21 22 23 26 29 31 31 32 34 36 40 44 48 52
45 39 30 24 22 22 24 25 28 30 34 37 39 40 40 39 38 35 34 28 25 24 24 26 28 30 28 21 17 17 18 20 20 20 21 23 25 28 31 33 37 40 44
35 27 24 21 20 20 22 24 26 29 33 35 36 37 37 36 32 30 32 27 23 23 22 22 24 24 24 18 18 21 20 18 18 20 20 21 24 26 27 29 31 34 36
28 23 21 19 18 19 21 23 24 28 31 32 33 34 32 32 30 27 28 28 23 21 21 21 20 20 19 17 19 20 19 18 17 18 16 18 21 24 24 26 28 30 30
24 23 19 17 16 17 20 21 23 27 29 30 32 31 29 28 29 27 25 25 25 24 20 19 18 17 17 16 16 16 17 19 15 12 15 15 14 18 21 24 27 29 31

GFSGL_500_spd_030.txt.gz
Wind_Speed
78 78 77 77 77 77 78 79 81 83 85 87 88 89 89 90 91 92 92 95 98 99 98 98 98 96 95 94 94 96 99 102 105 99 91 89 89 85 83 83 80 77 75
78 79 80 81 81 82 83 84 86 87 88 88 89 89 90 91 92 93 92 93 93 95 97 99 100 100 99 99 98 97 96 100 104 108 100 94 95 92 90 86 85 84 82
80 79 78 81 82 83 85 87 88 89 89 89 90 91 92 94 95 95 95 94 95 96 96 97 98 101 102 102 101 100 99 99 98 104 104 101 95 89 88 88 87 86 84
78 78 80 81 84 86 87 87 88 89 90 92 93 93 93 92 91 90 89 89 90 91 91 94 96 99 101 103 104 104 103 103 100 101 101 100 100 94 87 84 82 82 84
78 80 81 82 83 85 86 87 89 91 90 88 83 80 77 76 76 75 76 77 79 80 81 83 85 88 91 95 101 105 107 106 106 105 104 101 100 97 97 92 89 84 83
79 80 81 83 84 86 88 86 82 77 72 70 69 69 69 71 73 74 76 77 77 78 78 78 80 81 82 84 86 91 97 104 108 109 108 107 103 105 101 99 96 91 89
80 81 83 84 86 83 76 71 67 64 64 65 66 67 67 69 70 70 71 71 70 70 69 70 70 72 74 76 78 80 83 87 94 100 106 108 108 108 111 106 103 104 96
82 83 83 81 75 69 64 62 61 61 63 63 63 64 65 68 69 70 70 70 67 66 65 66 66 67 68 69 69 70 72 75 78 82 88 92 97 100 101 104 107 109 108
82 81 75 68 64 61 60 60 61 61 61 62 64 66 68 68 70 70 69 67 64 63 63 63 63 62 62 61 61 62 65 68 72 74 77 79 82 85 89 94 100 106 112
76 68 64 62 61 60 60 61 61 61 62 64 65 68 69 68 69 67 63 61 60 58 51 50 52 52 50 47 46 44 44 47 49 53 58 65 72 76 80 85 87 93 99
62 61 60 60 59 60 60 61 62 63 65 67 67 68 68 67 62 60 57 54 50 48 43 43 45 46 45 46 47 47 49 51 52 54 55 57 60 62 66 73 79 87 90
57 57 57 56 57 58 59 61 63 66 67 67 68 67 65 59 59 54 48 46 44 42 40 37 38 40 41 42 46 50 53 55 57 57 58 60 63 66 69 73 75 77 83
54 55 55 56 57 59 61 63 66 67 67 68 67 62 56 57 52 44 42 41 43 43 43 43 43 42 42 42 45 48 50 53 56 58 60 62 65 69 74 77 79 82 83
54 55 56 57 59 61 63 65 64 65 66 65 61 57 56 51 44 40 40 40 40 41 42 43 43 44 45 47 48 50 53 57 59 62 64 66 69 70 72 75 77 82 86
55 56 58 60 62 63 63 63 63 63 61 60 60 59 53 44 39 38 38 39 39 40 41 44 45 45 46 48 49 52 54 58 61 64 65 65 65 66 65 66 67 72 74
55 58 61 63 61 61 62 59 57 57 58 61 60 58 51 39 36 36 37 39 40 42 45 45 46 47 48 50 52 53 53 55 60 60 59 59 56 56 55 51 50 55 58
59 61 63 60 61 58 56 55 55 54 58 60 59 56 46 34 34 34 36 39 42 45 46 47 48 49 51 52 51 46 42 46 52 53 50 47 43 42 40 39 39 40 43
63 61 60 60 59 54 53 55 55 55 56 58 56 50 39 33 33 33 35 38 42 45 46 48 50 52 51 46 39 34 36 43 50 47 41 37 35 35 31 31 33 34 32
60 62 62 61 54 52 53 55 55 57 58 54 50 46 31 31 31 32 33 36 40 43 44 46 45 43 40 34 30 32 37 41 44 36 33 31 30 30 21 20 26 31 31
64 64 61 55 52 51 52 53 55 56 54 50 44 33 29 29 31 32 33 36 38 38 38 38 38 37 32 29 29 31 34 38 31 28 27 28 28 28 25 16 14 18 26
59 57 54 51 52 52 52 53 56 53 48 44 32 25 26 27 28 30 32 35 34 32 33 34 35 36 31 30 31 32 33 33 29 27 29 29 27 26 26 25 19 15 14
59 57 55 53 52 52 52 54 54 46 43 33 25 24 25 25 26 28 30 32 30 31 32 32 31 32 33 30 29 30 30 31 32 30 30 32 28 24 24 25 27 26 25
55 56 58 57 58 57 55 51 49 41 35 26 24 24 24 24 24 25 28 29 29 29 30 30 30 30 31 32 30 29 27 27 29 27 29 33 29 22 19 20 22 24 27
67 67 65 64 60 56 52 49 44 37 28 25 23 22 22 22 22 23 26 27 28 27 27 28 29 29 29 29 29 28 26 26 26 26 26 32 25 21 17 15 17 19 20
64 62 60 58 55 51 49 44 37 30 25 23 22 21 20 20 20 21 24 25 27 27 27 28 28 28 28 28 27 26 27 26 25 25 24 27 23 17 15 12 14 16 16
62 57 51 47 44 40 36 33 30 25 23 21 20 19 18 19 19 21 23 24 27 29 29 29 29 29 28 28 27 26 25 25 25 24 23 22 22 20 18 19 16 14 9

GFSGL_500_spd_033.txt.gz
Wind_Speed
71 74 76 77 78 80 80 80 80 80 79 78 79 80 81 83 84 86 87 88 88 89 91 91 91 91 91 92 95 99 104 106 108 105 101 93 92 90 87 88 87 85 86
75 77 77 78 78 78 78 78 78 78 79 80 81 83 85 86 87 88 88 89 90 90 92 93 94 95 95 95 95 95 96 100 105 110 111 106 97 93 92 90 90 88 87
77 78 78 79 79 78 79 80 79 80 81 84 86 87 87 87 88 90 91 92 93 93 93 94 94 95 95 96 97 98 98 99 100 101 101 108 106 97 93 92 92 92 91
77 78 79 78 78 79 79 80 82 83 84 84 85 87 88 89 89 90 88 85 82 80 79 78 79 81 82 84 85 88 91 94 96 100 101 99 101 102 99 93 90 91 90
77 76 77 77 78 79 80 81 82 83 84 86 87 87 86 83 80 77 74 73 72 71 71 72 73 74 75 77 78 79 81 84 86 89 92 96 99 102 102 101 96 91 89
74 77 78 78 79 80 81 82 83 84 86 85 81 77 73 70 69 68 68 67 66 66 67 68 69 69 69 69 70 71 73 74 75 78 81 83 85 94 101 103 102 97 90
76 77 78 78 80 81 82 83 84 82 78 73 68 64 63 64 65 65 66 67 68 70 71 70 69 68 66 65 65 66 66 68 69 70 72 74 76 79 86 94 102 103 99
78 78 79 80 81 82 82 81 76 70 67 63 60 61 61 64 64 65 67 70 71 72 72 71 68 65 63 62 61 62 62 63 65 67 67 67 70 72 74 78 84 93 100
78 80 82 82 81 81 77 69 65 63 60 59 59 61 62 63 65 67 70 71 70 68 65 63 62 60 58 56 54 54 50 51 52 51 52 53 58 64 67 71 72 76 83
81 81 80 78 75 69 65 61 59 58 59 60 61 62 63 65 67 68 69 68 63 60 57 56 53 52 48 45 47 48 44 46 46 45 45 45 45 47 49 53 61 68 72
81 77 73 67 62 60 58 56 56 58 59 61 62 63 65 66 66 66 65 62 59 59 55 47 43 44 44 44 42 41 42 40 40 44 45 46 48 50 52 54 57 58 60
72 67 62 60 58 56 55 56 58 59 60 61 61 62 63 64 64 61 59 59 58 53 46 40 39 41 42 42 41 41 41 41 41 41 43 45 48 52 54 56 59 61 62
64 61 58 56 56 56 57 58 59 60 61 61 61 61 61 60 57 58 57 56 54 50 42 41 40 41 43 43 44 44 44 43 42 43 45 48 52 54 56 58 60 63 64
60 59 58 58 57 57 58 59 60 62 63 61 61 60 57 57 57 55 54 53 50 43 40 42 42 42 44 44 45 45 45 46 47 48 49 52 55 58 60 62 63 65 66
59 59 59 59 58 58 59 60 62 64 62 61 59 59 59 58 57 55 53 49 43 38 38 39 40 41 43 46 48 48 48 48 49 50 52 54 56 60 62 66 67 67 67
58 59 59 59 59 60 61 63 63 62 61 60 56 58 60 60 58 55 49 45 36 34 35 36 39 41 44 46 46 47 50 51 50 48 47 46 49 54 56 58 57 58 58
57 57 58 60 62 63 63 61 60 62 60 55 54 57 59 58 57 52 46 37 32 33 34 37 39 41 43 44 45 46 46 45 41 36 35 40 47 51 49 46 45 44 42
57 58 61 63 64 65 66 63 60 56 50 51 53 55 57 56 54 49 38 30 31 32 34 35 38 39 40 41 42 41 38 34 31 32 36 39 43 42 41 40 38 34 34
56 53 57 61 64 66 64 59 55 50 48 48 52 56 55 53 47 38 27 27 30 32 32 34 35 35 37 38 38 37 33 31 32 32 35 36 38 37 37 37 34 31 28
57 62 66 63 61 59 57 57 55 51 49 49 50 54 54 47 39 28 26 27 28 29 30 32 32 33 34 34 34 35 33 33 32 33 34 34 36 36 34 36 34 30 26
64 71 72 65 62 61 60 57 54 53 52 51 50 51 48 41 30 28 29 28 27 27 28 30 29 30 31 31 31 32 32 31 32 32 32 32 32 32 37 36 31 29 27
74 75 70 65 65 66 64 60 56 52 51 52 52 49 43 35 27 27 28 27 26 25 26 27 27 28 28 29 29 30 30 29 27 27 28 30 30 31 36 31 26 26 24
79 79 71 69 69 67 65 64 62 60 56 52 45 42 38 29 27 27 25 24 23 23 24 25 26 28 29 29 29 28 29 29 27 25 25 26 27 30 30 25 21 22 20
83 73 70 69 69 67 64 60 56 53 51 48 44 39 32 27 26 24 22 21 21 22 23 26 28 29 30 30 30 30 28 29 28 27 25 23 24 25 26 21 19 18 18
69 68 72 71 66 61 56 54 50 44 41 37 35 31 26 24 24 21 19 18 19 21 23 26 28 29 30 30 30 30 29 27 27 27 26 25 24 24 24 23 20 20 19
64 66 62 57 51 47 40 36 35 33 31 30 26 23 22 21 20 18 16 17 18 21 24 27 29 30 30 30 30 30 29 28 26 25 24 24 24 24 23 22 21 19 15

GFSGL_500_spd_036.txt.gz
Wind_Speed
65 67 68 70 73 75 78 80 82 82 80 79 79 79 79 79 79 79 80 81 82 83 83 83 84 86 86 87 88 89 90 93 94 91 96 97 95 93 90 89 90 91 89
67 70 73 75 78 80 81 80 80 80 79 78 78 78 78 79 80 82 83 84 84 84 86 87 87 88 90 90 91 91 93 95 97 94 89 91 92 94 96 92 89 90 94
70 73 76 79 81 82 81 79 79 79 79 78 79 79 81 82 82 83 84 85 86 87 87 87 88 87 85 84 85 86 88 89 91 95 94 97 98 96 94 96 96 91 89
75 77 79 80 80 79 78 79 79 80 80 79 81 81 82 84 84 85 86 88 88 87 86 83 79 76 75 75 74 74 75 77 79 82 84 86 91 95 99 98 98 99 94
79 80 80 78 78 77 79 80 80 81 81 80 81 82 84 84 84 84 83 81 79 77 74 72 70 69 70 72 73 73 73 73 74 74 74 74 75 82 87 92 95 96 98
78 76 75 74 76 76 78 80 80 81 81 82 82 82 82 80 77 75 72 69 67 66 66 67 68 70 72 73 74 74 74 74 72 72 70 69 68 70 73 76 83 86 89
74 72 73 74 77 78 79 80 82 83 82 81 80 76 72 69 67 65 64 63 65 66 67 69 71 73 74 72 68 66 65 64 64 65 65 65 64 66 67 68 70 75 78
70 73 76 77 79 79 80 83 82 81 79 74 69 66 64 63 61 61 63 64 66 68 69 72 72 71 69 64 61 59 58 57 57 59 58 57 58 58 60 63 65 66 68
73 75 78 80 80 82 82 80 77 73 68 66 63 60 59 60 61 63 65 67 69 70 71 70 67 65 64 63 61 58 52 46 47 48 47 46 45 47 48 49 52 59 60
76 78 80 80 77 76 75 72 67 64 62 59 58 58 60 61 64 65 67 69 69 67 65 62 62 63 62 59 55 49 42 41 43 44 46 44 44 43 45 45 44 44 46
77 73 71 73 72 70 65 63 60 59 57 57 58 60 62 63 64 65 66 65 64 60 60 61 60 59 56 52 47 44 41 38 37 38 39 41 42 42 42 44 47 47 47
68 68 69 68 64 60 60 60 59 58 58 59 60 61 62 63 63 63 62 60 60 60 59 58 56 55 52 46 42 41 40 38 38 37 38 40 41 43 44 45 47 48 48
65 65 64 61 59 59 59 58 59 59 59 59 60 60 62 62 61 60 60 61 61 60 58 57 56 53 48 41 41 40 40 42 42 42 42 42 42 44 46 48 50 52 52
60 60 59 59 60 59 59 59 59 60 59 60 61 61 62 60 60 60 60 59 61 60 56 54 53 47 41 40 42 42 41 42 43 44 44 45 46 47 49 51 52 54 54
58 58 59 60 62 62 62 61 61 61 62 62 63 63 63 61 60 58 57 58 59 58 54 50 46 37 37 38 39 40 41 43 44 44 44 45 46 47 49 51 52 53 55
57 57 59 60 61 62 61 60 60 60 62 64 67 67 64 59 56 54 55 57 57 56 51 46 36 34 35 35 36 37 39 40 41 43 45 46 44 41 39 38 42 46 50
57 58 60 60 60 58 58 58 58 61 63 64 64 61 56 55 52 52 53 55 56 52 47 34 31 32 33 33 34 35 35 37 38 40 39 37 34 33 35 39 40 43 44
56 57 58 56 56 57 58 60 60 64 67 65 62 60 57 53 50 50 52 52 53 47 34 30 31 31 31 32 32 32 35 36 35 36 35 33 34 33 35 37 40 42 41
55 56 58 61 60 60 62 64 67 70 71 67 63 61 58 53 50 50 51 50 48 36 31 31 31 30 30 29 29 31 32 33 33 34 34 32 33 34 35 37 39 38 38
54 58 60 58 59 63 67 70 75 77 76 67 61 61 60 53 49 51 50 47 42 31 30 30 30 28 27 27 28 30 31 32 32 33 33 30 29 30 30 34 35 35 42
59 62 61 63 65 69 72 79 85 83 72 64 61 61 58 54 48 46 47 44 35 29 29 28 28 26 25 26 27 29 30 31 31 31 31 31 29 28 30 32 32 38 33
64 65 64 67 70 77 82 90 81 70 65 63 62 61 59 55 52 48 40 38 32 29 28 26 26 25 24 25 28 30 31 31 32 32 31 29 29 28 28 28 31 32 28
64 65 68 73 79 83 90 78 72 72 71 68 64 59 55 52 50 46 41 34 29 28 25 23 23 23 24 25 27 29 30 31 31 30 30 29 27 26 26 28 28 30 27
67 68 73 79 83 85 73 74 73 69 65 59 55 52 49 44 40 37 33 29 26 25 21 21 21 22 23 25 28 29 31 30 30 29 29 28 28 27 26 25 25 26 26
68 73 78 81 78 69 69 68 63 55 49 45 41 39 37 35 33 32 28 24 23 20 18 18 18 20 22 25 27 29 30 31 29 28 28 27 26 26 26 25 24 24 24
72 76 78 71 61 59 59 51 46 36 29 26 26 25 26 27 28 26 23 20 19 17 17 16 17 19 22 25 27 28 29 30 29 28 27 26 25 25 25 25 25 24 23

GFSGL_500_spd_042.txt.gz
Wind_Speed
55 59 61 62 62 63 65 66 68 71 74 73 76 77 80 82 85 88 89 85 83 83 87 88 88 87 86 86 86 85 84 85 86 77 81 81 81 84 83 83 85 84 82
59 62 64 66 66 67 69 71 73 75 76 76 78 80 82 85 87 88 84 84 84 87 87 84 86 87 86 85 83 79 77 77 78 75 73 72 75 76 77 74 74 79 83
60 64 66 67 69 71 74 75 75 76 78 79 80 83 85 87 85 83 85 86 85 82 85 86 86 84 81 78 75 72 70 69 70 69 65 67 67 70 70 70 69 67 68
65 67 68 70 72 74 75 74 76 78 79 81 83 86 87 84 83 84 86 82 81 84 84 85 81 76 72 69 67 66 66 67 68 69 67 67 69 70 70 70 66 67 66
68 69 70 72 74 74 73 76 79 81 82 84 86 88 84 83 84 85 79 80 83 82 81 78 72 68 67 66 66 65 65 65 66 67 66 65 64 63 63 63 63 61 58
69 69 71 74 74 74 75 80 82 82 84 86 86 83 83 85 83 77 79 81 81 78 74 70 67 65 65 65 65 65 65 66 66 67 65 60 55 57 57 57 56 56 53
68 69 71 71 75 77 79 81 81 83 85 83 82 83 84 81 77 78 79 79 77 73 69 66 65 65 65 65 64 65 66 67 68 69 66 63 59 58 57 55 54 52 50
67 67 70 73 77 80 81 81 83 82 81 81 83 83 77 76 78 78 78 76 72 68 66 64 64 65 67 66 66 64 64 66 67 67 67 63 59 56 54 54 51 46 41
64 68 73 76 78 78 80 80 79 79 81 81 80 74 74 77 78 78 76 73 69 66 66 65 66 67 68 68 67 66 64 63 63 63 62 59 57 53 50 49 46 42 33
68 71 74 75 77 76 75 76 78 80 81 78 72 73 76 77 77 74 72 69 66 65 65 65 66 67 68 68 68 66 65 63 61 58 55 52 51 48 44 43 41 38 37
70 72 74 73 72 72 75 77 78 80 74 72 73 75 75 73 73 71 68 66 66 65 63 65 68 68 67 68 67 65 64 63 60 55 50 48 42 39 39 39 39 37 36
72 73 73 70 72 74 76 78 75 70 70 72 73 73 73 72 69 65 64 65 65 64 67 67 67 67 68 66 62 61 60 59 56 52 48 39 34 35 37 36 36 36 37
73 71 71 71 73 76 75 69 69 70 70 70 71 71 70 67 64 64 64 65 67 69 64 64 64 68 70 64 60 58 55 55 53 47 37 34 35 35 35 35 37 37 38
71 70 71 74 75 70 67 68 68 68 69 69 69 68 66 64 63 62 64 65 64 63 64 66 68 72 69 61 57 53 52 53 45 35 34 34 34 34 35 35 36 38 38
71 73 74 71 66 66 67 66 67 68 68 68 68 66 65 65 66 65 64 64 64 64 65 67 71 73 66 55 54 51 48 48 37 36 34 33 32 32 34 35 35 36 36
73 68 65 65 65 65 65 66 67 67 67 68 66 66 66 67 67 67 68 68 69 69 69 72 75 71 59 51 51 46 46 41 38 35 33 32 30 30 31 32 33 34 34
62 61 62 63 64 65 66 67 66 66 67 66 66 67 67 67 69 70 71 71 71 73 74 76 75 65 52 48 46 43 41 39 37 33 31 30 30 29 30 29 30 31 32
62 63 63 64 65 65 66 66 67 67 66 66 68 68 68 70 73 74 74 75 76 79 78 77 65 55 49 46 42 39 38 37 35 32 30 30 29 29 30 30 30 30 29
63 63 63 64 65 65 66 66 66 66 67 69 69 69 71 77 77 77 78 80 83 84 78 63 56 51 47 44 39 36 35 34 33 30 29 29 30 29 30 30 29 30 28
61 62 63 64 64 65 65 65 65 66 70 70 69 73 79 81 79 80 84 88 88 75 67 64 58 51 46 42 37 34 33 32 30 27 28 28 29 29 29 28 28 27 28
61 61 62 62 63 64 64 65 66 69 71 74 76 79 81 82 84 87 87 75 70 74 70 62 55 49 44 40 35 31 31 29 27 25 26 28 28 29 30 29 27 26 26
61 61 62 62 62 62 63 68 70 73 78 78 77 76 80 86 86 72 67 73 71 64 58 51 47 43 39 35 32 29 27 25 23 23 25 26 27 27 29 28 27 26 25
62 62 62 61 62 65 68 72 75 77 78 76 74 79 82 68 68 65 69 66 60 50 44 39 36 34 32 30 29 26 23 20 20 20 23 24 25 26 27 27 27 25 25
61 60 60 62 65 67 72 74 76 76 71 72 75 75 67 68 62 61 58 53 41 30 27 26 26 26 26 26 25 20 18 16 17 18 20 22 23 24 25 26 26 24 24
63 64 65 67 70 71 72 74 72 69 70 72 74 67 63 63 53 50 46 36 26 20 16 18 20 21 23 23 19 16 14 12 13 14 17 20 21 23 24 25 24 24 24
62 63 66 68 69 69 70 70 70 71 73 73 63 58 59 50 44 39 32 23 14 9 11 15 17 19 20 18 15 13 11 9 11 12 16 19 21 23 23 24 24 23 24

GFSGL_500_spd_045.txt.gz
Wind_Speed
42 45 49 52 55 58 60 62 63 64 67 69 72 73 76 75 74 78 81 83 85 89 92 91 90 89 89 84 83 86 89 88 86 81 79 75 70 70 69 67 68 70 74
49 52 54 55 57 60 63 66 68 68 70 71 72 76 76 76 78 82 84 86 89 90 89 88 89 88 81 82 85 87 86 83 81 76 71 68 66 65 64 64 62 63 63
52 55 57 59 60 62 66 68 71 72 73 72 74 75 77 80 83 84 87 89 89 88 87 88 84 80 81 83 84 83 82 78 76 73 69 68 66 66 64 63 64 62 62
55 58 61 62 64 65 67 69 72 72 73 74 74 77 80 84 86 87 88 87 86 86 85 80 79 81 82 83 82 80 77 74 73 72 70 68 68 68 68 67 63 61 59
57 59 61 64 67 68 68 67 70 72 73 74 76 80 83 86 87 88 86 85 85 83 79 79 80 82 82 81 79 76 74 73 72 72 70 68 67 67 66 63 62 57 52
60 59 61 65 67 68 68 69 71 71 73 75 79 83 84 86 86 85 86 85 83 77 76 79 81 82 80 78 76 74 73 72 71 72 70 70 68 69 66 60 56 54 49
57 60 65 66 65 68 67 69 69 71 75 78 81 83 85 84 84 84 85 83 78 77 78 81 80 79 78 74 72 71 70 71 72 73 70 69 68 67 64 58 54 51 50
59 62 63 65 67 68 68 66 70 75 76 79 81 83 82 83 84 84 82 77 76 78 79 79 78 76 72 71 69 68 68 69 68 68 69 68 66 64 62 58 54 49 47
59 60 66 68 70 67 67 71 73 75 78 79 79 78 80 81 82 79 77 76 77 78 78 76 74 70 70 69 70 70 67 68 69 68 66 64 63 61 59 56 51 49 43
64 69 72 68 65 68 69 71 74 76 76 75 76 79 79 79 77 76 77 76 77 77 74 71 69 68 68 68 68 68 68 68 67 67 61 58 57 54 52 50 46 42 39
69 67 65 66 66 68 71 72 72 73 74 75 76 78 76 74 74 76 76 76 74 72 69 68 67 66 65 66 68 68 69 69 70 69 59 53 51 48 44 40 39 37 34
63 66 67 67 68 69 70 71 72 73 74 76 77 74 72 73 74 75 75 73 71 69 68 67 66 65 64 64 67 68 70 72 73 67 57 51 48 40 39 37 36 36 36
68 67 66 66 68 69 69 71 71 73 75 75 73 71 72 72 72 72 71 70 70 69 68 68 66 65 64 64 66 68 71 74 73 62 53 48 41 39 37 35 35 33 34
65 65 66 67 67 67 69 72 74 75 72 71 72 72 71 70 69 70 70 69 69 70 69 68 67 67 65 67 68 70 73 75 69 56 50 45 39 38 36 33 31 30 30
66 66 66 67 67 70 73 74 73 70 72 72 70 70 69 68 68 69 68 68 70 72 72 71 71 69 69 69 70 72 75 73 60 50 46 40 37 35 33 31 30 29 29
66 67 68 70 73 74 71 69 69 70 69 69 69 69 68 68 69 70 70 71 73 74 75 75 76 74 72 72 74 74 73 64 52 45 43 38 36 33 31 30 29 30 30
67 70 72 73 71 68 69 69 69 69 68 68 69 68 68 69 70 71 72 73 74 77 79 83 83 79 78 79 79 73 62 52 48 42 40 37 35 32 31 29 29 31 31
69 68 68 68 69 69 69 69 68 68 68 68 67 67 68 69 72 74 76 78 80 82 85 84 84 87 86 81 72 59 50 49 45 40 38 35 33 30 29 28 29 29 30
66 68 68 67 68 69 69 68 67 66 66 66 67 68 70 71 74 77 80 84 86 86 87 88 84 73 68 61 56 58 54 47 42 38 35 33 31 27 27 28 28 29 28
66 66 68 69 70 69 67 66 65 65 66 67 68 69 72 74 77 80 83 85 85 86 87 75 75 73 68 66 61 54 47 43 38 35 32 31 28 26 27 27 26 27 28
67 68 69 69 67 66 65 65 65 66 67 68 70 73 75 76 78 81 84 83 85 85 74 74 69 70 65 59 51 43 39 37 34 31 29 27 25 25 25 24 24 25 25
68 67 66 65 64 64 65 66 67 67 68 70 72 73 76 79 79 82 82 83 83 72 69 67 66 64 55 44 37 33 32 31 30 27 25 23 22 21 22 22 23 23 24
61 60 60 62 64 65 65 66 67 69 72 73 74 76 78 78 79 80 80 79 69 65 61 61 59 46 35 28 25 26 26 27 25 23 20 19 19 17 18 20 21 22 23
58 60 61 61 63 65 64 65 68 71 72 72 74 75 78 79 79 78 73 66 60 55 54 54 41 32 25 18 19 21 23 23 21 17 16 16 14 14 16 17 19 20 21
54 58 61 62 63 64 66 66 66 67 68 72 76 78 77 80 76 67 59 54 53 46 43 39 26 19 13 14 17 19 19 18 16 14 13 12 10 12 14 16 18 19 20
56 59 62 64 65 68 67 66 67 70 73 75 77 79 77 71 63 56 48 48 44 38 32 26 17 11 11 13 15 16 16 16 14 12 11 9 9 10 13 15 17 19 20

GFSGL_500_spd_048.txt.gz
Wind_Speed
43 44 44 42 44 46 49 53 56 58 60 62 64 67 70 72 75 76 78 81 82 83 83 85 88 91 94 95 94 92 92 90 86 84 86 87 87 86 85 82 79 75 72
43 43 42 45 48 50 54 57 58 60 62 63 65 68 71 74 76 78 80 81 81 82 85 88 90 92 92 92 90 89 84 85 88 86 86 86 86 84 83 79 77 74 72
48 47 47 49 53 55 57 59 61 63 65 66 69 71 72 74 77 78 80 81 83 85 87 90 91 90 90 88 85 81 83 86 88 88 88 87 84 83 79 77 74 72 70
50 49 51 53 55 59 61 63 64 66 67 68 70 70 73 76 76 78 80 83 85 87 89 89 87 88 88 85 81 83 85 86 87 88 86 83 82 79 78 76 70 70 66
54 56 56 57 58 59 61 63 65 68 68 69 69 72 74 77 79 80 82 85 87 88 88 87 88 88 85 81 83 84 85 85 84 83 83 80 79 76 76 73 72 69 63
58 58 59 58 58 61 62 62 66 67 69 71 71 75 79 80 79 82 85 86 87 88 87 87 88 84 81 82 83 83 83 83 81 80 78 77 75 77 75 74 72 70 62
58 60 60 60 61 62 61 62 67 68 71 72 73 76 77 79 81 84 86 87 87 86 86 87 84 81 81 81 82 81 79 78 77 78 74 75 74 75 75 74 72 68 61
61 62 63 60 59 57 64 66 68 68 71 73 74 76 80 82 84 85 86 86 85 85 86 82 79 79 79 79 77 76 76 73 73 74 71 73 73 75 76 76 70 63 54
63 62 60 55 61 65 66 67 69 69 71 72 74 78 80 82 84 84 84 83 84 84 81 77 77 78 78 76 76 73 72 71 72 71 71 71 73 74 76 72 63 58 49
59 60 53 57 62 65 69 70 73 71 71 75 78 79 80 81 83 82 82 84 82 78 76 75 76 75 74 73 73 72 71 71 73 71 69 70 71 74 75 67 59 53 47
57 58 60 61 68 72 76 74 69 74 76 77 79 79 80 79 81 82 83 80 76 75 74 74 74 73 72 73 72 72 71 73 74 73 71 71 71 73 74 61 55 48 43
59 61 65 70 73 72 71 73 73 75 77 78 77 75 76 78 80 81 78 76 76 74 72 72 72 71 71 72 72 72 74 77 78 77 73 71 72 72 70 55 48 44 43
61 64 67 69 69 70 70 73 75 76 76 74 74 74 77 78 78 75 75 76 75 73 70 69 70 71 72 71 73 76 79 81 82 79 74 73 73 72 63 49 42 41 38
62 64 66 68 70 70 72 73 72 72 72 73 74 76 76 74 73 74 74 73 72 71 69 70 72 72 73 75 78 80 83 84 83 80 80 78 75 69 54 46 37 37 33
64 65 67 68 70 72 71 70 70 71 73 75 75 74 72 72 73 72 71 71 70 70 70 71 72 74 76 80 83 84 85 85 86 85 79 72 64 52 46 42 36 35 33
66 66 69 72 72 71 69 70 72 74 75 73 71 72 72 71 71 71 69 67 68 70 72 72 73 76 80 82 85 87 86 87 81 66 61 52 45 42 41 39 35 34 32
68 70 70 69 68 69 71 73 74 73 73 74 74 74 73 71 68 66 66 67 69 71 73 75 79 82 84 86 88 89 90 84 70 71 63 47 43 42 39 36 34 33 30
67 67 67 69 70 71 71 71 72 73 73 73 74 72 68 65 64 64 66 67 70 72 76 78 81 85 87 91 93 93 85 74 69 60 54 53 49 42 37 34 32 29 28
65 66 67 68 69 71 72 72 73 74 75 74 71 67 64 63 64 65 66 69 71 75 79 82 85 87 90 92 92 82 74 69 65 60 53 47 41 36 34 31 29 27 26
65 66 68 69 71 72 72 74 75 74 71 67 65 64 65 65 65 67 70 73 77 79 82 83 86 89 90 88 78 72 68 65 60 53 43 36 32 31 29 28 26 24 25
65 66 68 69 70 72 74 73 70 66 64 63 64 63 64 66 69 72 75 78 79 79 80 85 89 90 83 73 67 65 62 54 46 36 30 27 27 27 24 24 22 21 22
62 60 62 67 69 70 68 64 62 61 61 62 64 67 69 70 72 74 75 75 76 79 84 87 86 79 68 62 60 57 48 39 30 21 22 23 23 23 21 19 18 17 19
63 64 65 66 64 60 58 58 58 59 60 61 65 68 71 74 75 73 74 77 81 83 86 80 70 62 56 52 51 44 33 23 16 17 18 19 20 17 16 16 15 14 16
64 64 63 61 59 58 55 56 56 58 61 65 68 71 75 76 76 76 79 81 82 81 72 64 55 50 45 44 37 28 17 13 13 14 16 17 16 14 13 12 11 11 13
62 62 60 59 59 57 58 61 63 65 68 72 74 75 76 75 76 78 78 76 73 62 55 47 45 39 35 32 24 16 11 10 11 13 14 15 13 11 11 8 7 8 10
59 60 62 62 63 65 67 70 72 74 75 76 76 75 73 72 72 73 72 66 60 54 44 40 36 32 28 24 18 14 11 11 11 13 14 14 11 9 8 6 6 8 9